www.pogodaiklimat.ru

Погода и климат >> Архив погоды >> Россия >> Ненецкий АО >> Хорей-Вер


ПОГОДА в Хорей-Вере

  • Прогноз погоды в Хорей-Вере
  • Монитор погоды в Хорей-Вере

АРХИВ ПОГОДЫ в Хорей-Вере

Время (UTC), дата Ветер
(напр.,м/с)
 
Видим.   Явления Облачность Т
(С)
Тd
(С)
f
(%)
Тe
(С)
Тes
(С)
Комфортность P
(гПа)
Po
(гПа)
Тmin
(С)
Tmax
(С)
R
(мм)
R24
(мм)
S
(см)
09 12.08 СВ 5 20 км 9/8 300 м
[Sc Ci fib]
+7.5 +2.1 69 +4 +5 1016.9 1008.1
12 12.08 С 5 20 км 9/9 600 м
[Sc]
+8.4 +3.0 69 +5 +5 1018.1 1009.4
15 12.08 С 4 20 км 4/4 600 м
[Sc]
+7.1 +3.3 77 +4 +4 1018.9 1010.2 +8.6
18 12.08 С 2 20 км 1/1 600 м
[Sc]
+1.6 +0.8 94 -2 -2 1019.9 1010.9
21 12.08 штиль 0 20 км 1/0
[Ci fib]
-0.1 -0.2 99 -2 -2 1020.8 1011.8
00 13.08 штиль 0 50 м туман ?/? -1.6 -1.7 99 -3 -3 1021.5 1012.4
03 13.08 ЮВ 1 20 км {туман} ясно +3.1 +2.6 97 +1 +4 1021.9 1012.9 -2.1
06 13.08 З 1 20 км {туман} ясно +8.3 +3.1 70 +8 +15 1021.2 1012.4
09 13.08 ЮВ 2 20 км ясно +13.0 +2.8 50 +13 +20 1020.4 1011.8
12 13.08 В 2 20 км 1/1 600 м
[Sc]
+14.8 +2.8 44 +15 +18 1019.4 1010.8
15 13.08 ЮВ 1 20 км 1/0
[Ci sp]
+14.1 +3.3 48 +15 +15 1018.3 1009.8 +15.2
18 13.08 ЮВ 1 20 км 1/1 600 м
[Sc]
+5.6 +3.7 88 +4 +4 1017.6 1008.8
21 13.08 В 2 20 км 9/8 600 м
[Sc Ac trans Ci sp]
+3.6 +3.3 98 0 0 1016.5 1007.7
00 14.08 ЮВ 2 10 км слаб. дождь 10/0
[As op]
+6.2 +5.8 97 +4 +4 1015.2 1006.5
03 14.08 ЮВ 1 20 км {дождь} 10/0
[Ac As]
+7.6 +7.6 100 +6 +7 1014.1 1005.4 +3.4 0.4
06 14.08 Ю 2 4000 м слаб. дождь 10/10 300 м
[Frnb Ns]
+10.0 +9.8 99 +8 +8 1013.3 1004.7
09 14.08 ЮЗ 2 20 км {дождь} 10/10 300 м
[Cb cap]
+11.8 +10.9 94 +11 +11 1012.1 1003.5
12 14.08 ЮЗ 1 10 км слаб. дождь 10/10 300 м
[Frnb Ns]
+12.4 +12.1 98 +12 +12 1011.4 1002.9
15 14.08 ЮЗ 2 20 км {дождь} 10/10 200 м
[Cu hum]
+12.6 +12.3 98 +12 +12 1010.7 1002.2 +13.0 0.7
18 14.08 ЮЗ 2 20 км {дождь} 10/10 300 м
[Sc diur, vesp]
+11.6 +11.5 99 +10 +10 1010.6 1002.0
21 14.08 ЮЗ 2 20 км 10/10 300 м
[Sc diur, vesp]
+11.1 +11.1 100 +10 +10 1010.3 1001.7
00 15.08 ЮЗ 3 н/о н/о +10.0 +9.9 99 +8 +8 1010.6 1002.0
03 15.08 ЮЗ 2 20 км {ливн. осадки} 10/10 300 м
[Cb cap]
+11.7 +11.5 99 +10 +10 1010.4 1001.9 +9.9 0.5
06 15.08 ЮЗ 4 4000 м слаб. дождь 10/8 200 м
[Frnb Ac As]
+11.2 +11.0 99 +9 +9 1010.8 1002.3
09 15.08 ЮЗ 4 10 км слаб. морось {дождь} 10/10 300 м
[St]
+11.7 +11.2 97 +9 +9 1011.1 1002.5
12 15.08 З 3 20 км {дождь, морось} 10/10 300 м
[Cb cap]
+12.7 +11.4 92 +11 +11 1011.2 1002.7
15 15.08 ЮЗ 2 20 км 10/10 600 м
[Sc]
+13.0 +12.2 95 +12 +12 1011.2 1002.7 +13.1 1
18 15.08 Ю 2 20 км 9/8 300 м
[Cb cap Ac trans Ci fib]
+12.6 +12.1 97 +12 +12 1010.6 1002.1
21 15.08 Ю 3 20 км 9/3 600 м
[Sc Ac trans Ci fib]
+12.1 +11.7 97 +10 +10 1009.8 1001.2
00 16.08 ЮВ 2 20 км в посл. час ливневой дождь 10/9 300 м
[Cb cap Ac As]
+11.5 +11.4 99 +10 +10 1008.1 999.5
03 16.08 ЮВ 3 10 км слаб. дождь 10/0
[Ac As]
+11.9 +11.7 99 +10 +11 1006.0 997.5 +11.3 0.6
06 16.08 В 5 10 км слаб. дождь 10/0
[Ac As]
+12.6 +12.4 99 +10 +11 1002.4 993.9
09 16.08 Ю 5 4000 м слаб. морось {дождь} 10/10 300 м
[Frnb]
+14.4 +14.1 98 +13 +13 999.2 990.8
12 16.08 ЮЗ 7-11
{14}
20 км {дождь, морось} 10/10 300 м
[Cb cap]
+14.3 +12.6 90 +12 +12 1000.2 991.8
15 16.08 ЮЗ 7-11
{16}
10 км слаб. морось 10/10 300 м
[St]
+12.5 +11.8 95 +10 +10 1000.4 992.0 +16.4 1
18 16.08 ЮЗ 5
{12}
4000 м слаб. дождь {морось} 10/10 300 м
[Frnb]
+12.1 +11.9 99 +9 +9 999.7 991.2
03 17.08 СЗ 6 20 км {дождь, морось} 10/0
[As op]
+10.1 +9.9 99 +6 +7 1008.8 1000.2 +10.3 4
06 17.08 СЗ 5
{12}
20 км {дождь} 10/10 300 м
[Sc diur, vesp]
+11.0 +9.8 92 +8 +8 1012.6 1004.0 +10.0
09 17.08 СЗ 5
{11}
20 км 8/8 300 м
[Cu Sc]
+12.9 +9.2 78 +11 +11 1014.6 1006.0
15 17.08 20 км 10/10 300 м
[]
+12.5 +8.0 74 1017.8 1009.2 +14.8
18 17.08 штиль 0 20 км 10/10 600 м
[Sc]
+9.8 +9.2 96 +9 +9 1019.1 1010.4
21 17.08 СЗ 5 20 км 8/0
[Ci sp]
+12.9 +9.2 78 +11 +11 1014.7 1006.0
00 18.08 штиль 0 20 км 10/10 300 м
[Sc]
+8.7 +8.2 97 +8 +8 1021.6 1012.9
03 18.08 З 2 20 км 10/10 300 м
[Cb cap]
+10.7 +10.0 95 +9 +9 1022.7 1014.0 +6.3
06 18.08 З 2 20 км 9/9 300 м
[Cb cap]
+12.7 +10.1 84 +12 +12 1023.3 1014.7
09 18.08 З 3 20 км 9/9 300 м
[Cb cap]
+12.3 +9.3 82 +11 +11 1024.3 1015.7
12 18.08 З 1 20 км 8/8 600 м
[Sc]
+13.3 +8.5 73 +14 +14 1025.4 1016.8
15 18.08 З 1 20 км 1/1 600 м
[Sc]
+13.6 +9.5 76 +14 +14 1025.9 1017.3 +14.1
18 18.08 штиль 0 20 км 1/0
[Ci fib]
+8.1 +7.4 95 +7 +7 1026.7 1017.9
21 18.08 Ю 1 20 км 1/0
[Ci fib]
+6.7 +6.6 99 +5 +5 1027.5 1018.7
00 19.08 Ю 1 20 км 1/0
[Ci fib]
+6.4 +6.4 100 +5 +5 1028.4 1019.5
03 19.08 штиль 0 20 км 3/0
[Ac trans Ci fib]
+10.4 +9.3 93 +10 +12 1029.1 1020.3 +5.4
06 19.08 Ю 1 20 км 3/0
[Ac trans Ci fib]
+16.2 +10.1 67 +17 +23 1028.7 1020.1

 

Местоположение метеостанции Хорей-Вер (Ненецкий АО, Россия): широта 67.43 долгота 58.02 высота над уровнем моря 72 м.

В архиве по умолчанию представлена погода в Хорей-Вере за последнюю неделю. Архивные данные за месяц целиком и за предыдущие месяцы, начиная с января 2011 года, Вы можете получить, выбрав интересующий диапазон дат из раскрывающегося списка и нажав кнопку "Ввод!".


*Определитесь, кто Вы:
робот инопланетянин человек

Внимание! Время в таблицах - всемирное. Для получения местного времени необходимо прибавить поправку, которая равна 3 ч.

Смотрите также архив погоды в соседних городах и на ближайших метеорологических станциях:

Погода в Харуте (Ненецкий АО, Россия) (92 км)
Погода в Варандее (Ненецкий АО, Россия) (155 км)
Погода в Усинске (Коми, Россия) (158 км)
Погода на Мысе Константиновском (Ненецкий АО, Россия) (163 км)
Погода в Петруни (Коми, Россия) (163 км)
Погода в Усть-Усе (Коми, Россия) (169 км)
Погода в Мутном Материке (Коми, Россия) (207 км)
Погода в Нарьян-Маре (Ненецкий АО, Россия) (214 км)
Погода в Ходоварихе (Ненецкий АО, Россия) (243 км)
Погода в Воркуте (Коми, Россия) (254 км)

Пояснения к столбцам:

Ветер - указаны скорость ветра в м/с - средняя за 10 мин, порывы в срок и между сроками (в фигурных скобках) и направление, откуда дует ветер: С - северный, СВ - северо-восточный, В - восточный, ЮВ - юго-восточный, Ю - южный, ЮЗ - юго-западный, З - западный, СЗ - северо-западный.
Видимость - горизонтальная дальность видимости в метрах или километрах. При видимости от 1 до 10 км при отсутствии осадков обычно наблюдается дымка, при ухудшении видимости до 1 км и менее - туман. В сухую погоду видимость может ухудшаться дымом, пылью или мглою.
Явления - указаны атмосферные явления, наблюдавшиеся в срок или в последний час перед сроком; фигурными скобками обозначены явления, наблюдавшиеся между сроками (за 1-3 часа до срока); квадратными скобками обозначены град или гололедные отложения с указанием их диаметра в мм.
Облачность - указаны через наклонную черту общая и нижняя облачность в баллах и высота нижней границы облаков в метрах; квадратными скобками обозначены формы облаков: Ci - перистые, Cs - перисто-слоистые, Cc - перисто-кучевые, Ac - высококучевые, As - высокослоистые, Sc - слоисто-кучевые, Ns - слоисто-дождевые, Cu - кучевые, Cb - кучево-дождевые. Подробнее классификацию облаков см. в Атласе облаков (PDF).
T - Температура воздуха - температура, измеренная на высоте 2 м над землей.
Td - Температура точки росы - температура, при понижении до которой содержащийся в воздухе водяной пар достигнет насыщения.
f - Относительная влажность воздуха - влажноcть воздуха, измеренная на высоте 2 м над землей.
Te - Эффективная температура - температура, которую ощущает одетый по сезону человек в тени. Характеристика душности погоды. При расчете учитывается влияние влажности воздуха и скорости ветра на теплоощущения человека.
Tes - Эффективная температура на солнце - температура, которую ощущает человек, с поправкой на солнечный нагрев. Характеристика знойности погоды. Зависит от высоты солнца над горизонтом, облачности и скорости ветра. Ночью, в пасмурную погоду, а также при ветре 12 м/с и более поправка равна нулю.
P - Атмосферное давление - приведенное к уровню моря атмосферное давление.
Po - Атмосферное давление - измеренное на уровне метеостанции атмосферное давление.
Tmin - Минимальная температура - минимум температуры воздуха на высоте 2 м над землей.
Tmax - Максимальная температура - максимум температуры воздуха на высоте 2 м над землей.
R - Количество осадков - Количество выпавших осадков за период времени, мм. При наведении курсора мыши на число - период времени, за который выпало указанное количество осадков.
R24 - Количество осадков - Количество выпавших осадков за 24 часа, мм.
S - Снежный покров - Высота снежного покрова, см. При наведении курсора мыши на число - состояние снежного покрова и степень покрытия местности в баллах.